Skip Page Navigation
NASA JPL Caltech
NASA Logo - Jet Propulsion Laboratory + View the NASA Portal
+ Center for Near-Earth Object Studies
JPL Home Earth Solar System Stars & Galaxies Technology
JPL Solar System Dynamics
BODIES ORBITS EPHEMERIDES TOOLS PHYSICAL DATA DISCOVERY FAQ SITE MAP
IMPORTANT: The SSD Announcement email list is now available. Major changes are coming in the near future, including possible hostname and/or URL changes. To be notified of such changes, subscribe to this email list.

Please visit this page for more details.


JPL Small-Body Database Browser
Search: [ help ]  
437164 (2012 VX46)
Classification: Main-belt Asteroid          SPK-ID: 2437164
Ephemeris | Orbit Diagram | Orbital Elements | Mission Design | Physical Parameters | Discovery Circumstances ]

[ show orbit diagram ]
Orbital Elements at Epoch 2458600.5 (2019-Apr-27.0) TDB
Reference: JPL 15 (heliocentric ecliptic J2000)
 Element Value Uncertainty (1-sigma)   Units 
e .05969944804276953 5.2018e-08  
a 2.574802297123018 3.5216e-08 au
q 2.421088021165519 1.5073e-07 au
i 3.921462811729538 6.4979e-06 deg
node 179.1899306124112 0.00010345 deg
peri 154.1939273228973 0.00012536 deg
M 261.515350345303 7.1522e-05 deg
tp 2459013.338605381349
(2020-Jun-12.83860538)
0.00030159 TDB
period 1509.086933429505
4.13
3.096e-05
8.476e-08
d
yr
n .2385548453341088 4.8942e-09 deg/d
Q 2.728516573080517 3.7319e-08 au
  Orbit Determination Parameters
   # obs. used (total)      143  
   data-arc span      6284 days (17.20 yr)  
   first obs. used      2002-03-18  
   last obs. used      2019-06-01  
   planetary ephem.      DE431  
   SB-pert. ephem.      SB431-N16  
   condition code      0  
   norm. resid. RMS      .53058  
   source      ORB  
   producer      Otto Matic  
   solution date      2019-Sep-24 07:37:24  

Additional Information
 Earth MOID = 1.41067 au 
 Jupiter MOID = 2.47267 au 
 T_jup = 3.422 
[ show covariance matrix ]

Ephemeris | Orbit Diagram | Orbital Elements | Mission Design | Physical Parameters | Discovery Circumstances ]

Physical Parameter Table
Parameter Symbol Value Units Sigma Reference Notes
absolute magnitude H 17.2   n/a MPO434607  

437164 (2012 VX46)          Discovered 2008-Oct-29 by Mt. Lemmon Survey at Mount Lemmon
Reference: Last Updated: 2015-06-04
Ephemeris | Orbit Diagram | Orbital Elements | Mission Design | Physical Parameters | Discovery Circumstances ]
ABOUT SSD CREDITS/AWARDS PRIVACY/COPYRIGHT GLOSSARY LINKS
FirstGov 2019-Dec-11 17:19 UT
(server date/time)  
NASA Home Page
Site Manager:   Ryan S. Park
Webmaster  Alan B. Chamberlin